Latest Weather Observations for Sydney Harbour

IDN60801

Issued at 7:35 pm EDT Saturday 25 October 2014 (issued every 30 minutes, with the page automatically refreshed every 10 minutes)

About weather observations | Map of weather stations | Latest weather observations for NSW | Other Formats
Station Details ID: 066196 Name: WEDDING CAKE WEST Lat: -33.84 Lon: 151.26 Height: 6.0 m
Data from the previous 72 hours. | See also: Recent months for locations in New South Wales
Date/Time
EDT
Temp
°C
App
Temp
°C
Dew
Point
Rel
Hum
%
Delta-T
°C
Wind Press
QNH
hPa
Press
MSL
hPa
Rain
since 9 am
mm
Dir
 
Spd
km/h
Gust
km/h
Spd
kts
Gust
kts
25/07:30pm 20.0 - - - - SSW 20 22 11 12 - - -
25/07:00pm 20.1 - - - - S 20 33 11 18 - - -
25/06:30pm 20.0 - - - - S 24 30 13 16 - - -
25/06:00pm 20.2 - - - - S 26 33 14 18 - - -
25/05:30pm 20.1 - - - - S 24 33 13 18 - - -
25/05:00pm 20.4 - - - - S 26 35 14 19 - - -
25/04:30pm 20.7 - - - - S 22 30 12 16 - - -
25/04:00pm 20.8 - - - - SSE 24 30 13 16 - - -
25/03:30pm 20.8 - - - - S 24 32 13 17 - - -
25/03:00pm 20.8 - - - - S 24 30 13 16 - - -
25/02:30pm 21.5 - - - - SSE 28 33 15 18 - - -
25/02:00pm 22.0 - - - - SSE 24 32 13 17 - - -
25/01:30pm 22.1 - - - - SSE 30 39 16 21 - - -
25/01:00pm 22.4 - - - - SSE 33 41 18 22 - - -
25/12:30pm 23.5 - - - - SSE 28 33 15 18 - - -
25/12:00pm 23.9 - - - - S 20 26 11 14 - - -
25/11:30am 24.5 - - - - S 17 20 9 11 - - -
25/11:00am 23.7 - - - - S 17 20 9 11 - - -
25/10:30am 23.6 - - - - SW 11 15 6 8 - - -
25/10:00am 22.8 - - - - WSW 17 24 9 13 - - -
25/09:30am 21.7 - - - - WSW 22 26 12 14 - - -
25/09:00am 21.1 - - - - WSW 13 15 7 8 - - -
25/08:30am 19.4 - - - - WSW 11 15 6 8 - - -
25/08:00am 18.3 - - - - WSW 11 15 6 8 - - -
25/07:30am 18.1 - - - - W 13 20 7 11 - - -
25/07:00am 18.1 - - - - WSW 13 17 7 9 - - -
25/06:30am 18.1 - - - - WSW 11 15 6 8 - - -
25/06:00am 18.2 - - - - WSW 9 13 5 7 - - -
25/05:30am 18.6 - - - - WSW 7 11 4 6 - - -
25/05:00am 18.8 - - - - WSW 9 11 5 6 - - -
25/04:30am 18.8 - - - - WSW 9 11 5 6 - - -
25/04:00am 18.8 - - - - WSW 9 11 5 6 - - -
25/03:30am 18.9 - - - - WSW 7 9 4 5 - - -
25/03:00am 19.0 - - - - WSW 6 9 3 5 - - -
25/02:30am 19.4 - - - - SW 11 13 6 7 - - -
25/02:00am 19.4 - - - - SSW 9 11 5 6 - - -
25/01:30am 19.3 - - - - SSW 7 9 4 5 - - -
25/01:00am 19.8 - - - - SSW 7 11 4 6 - - -
25/12:30am 20.1 - - - - S 4 9 2 5 - - -
25/12:00am 19.8 - - - - S 9 15 5 8 - - -
 
Date/Time
EDT
Temp
°C
App
Temp
°C
Dew
Point
Rel
Hum
%
Delta-T
°C
Wind Press
QNH
hPa
Press
MSL
hPa
Rain
since 9 am
mm
Dir
 
Spd
km/h
Gust
km/h
Spd
kts
Gust
kts
24/11:30pm 20.1 - - - - NNE 13 17 7 9 - - -
24/11:00pm 20.2 - - - - NNE 17 19 9 10 - - -
24/10:30pm 20.3 - - - - NNE 17 20 9 11 - - -
24/10:00pm 20.7 - - - - N 24 41 13 22 - - -
24/09:30pm 20.1 - - - - NNE 35 41 19 22 - - -
24/09:00pm 20.1 - - - - NNE 39 46 21 25 - - -
24/08:30pm 20.2 - - - - NNE 39 46 21 25 - - -
24/08:00pm 20.3 - - - - NNE 37 44 20 24 - - -
24/07:30pm 20.4 - - - - NNE 43 50 23 27 - - -
24/07:00pm 20.6 - - - - NNE 44 54 24 29 - - -
24/06:30pm 20.4 - - - - NNE 39 50 21 27 - - -
24/06:00pm 20.3 - - - - NNE 37 46 20 25 - - -
24/05:30pm 20.3 - - - - NNE 37 46 20 25 - - -
24/05:00pm 20.3 - - - - NNE 41 50 22 27 - - -
24/04:30pm 20.3 - - - - NNE 39 46 21 25 - - -
24/04:00pm 20.2 - - - - NNE 39 50 21 27 - - -
24/03:30pm 19.8 - - - - NNE 43 52 23 28 - - -
24/03:00pm 20.0 - - - - NNE 35 44 19 24 - - -
24/02:30pm 20.0 - - - - NNE 33 39 18 21 - - -
24/02:00pm 19.9 - - - - NNE 33 43 18 23 - - -
24/01:30pm 20.3 - - - - NE 32 37 17 20 - - -
24/01:00pm 20.1 - - - - NNE 30 33 16 18 - - -
24/12:30pm 21.2 - - - - NNE 20 24 11 13 - - -
24/12:00pm 20.7 - - - - NNE 24 26 13 14 - - -
24/11:30am 19.9 - - - - N 9 13 5 7 - - -
24/11:00am 20.5 - - - - E 20 22 11 12 - - -
24/10:30am 22.0 - - - - NW 7 11 4 6 - - -
24/10:00am 21.3 - - - - NNE 9 13 5 7 - - -
24/09:30am 20.9 - - - - N 15 19 8 10 - - -
24/09:00am 20.5 - - - - N 17 20 9 11 - - -
24/08:30am 19.8 - - - - N 15 19 8 10 - - -
24/08:00am 19.6 - - - - NE 6 15 3 8 - - -
24/07:30am 19.1 - - - - E 17 22 9 12 - - -
24/07:00am 18.9 - - - - SSE 9 13 5 7 - - -
24/06:30am 19.0 - - - - SE 11 13 6 7 - - -
24/06:00am 18.9 - - - - ENE 11 13 6 7 - - -
24/05:30am 19.0 - - - - WSW 11 13 6 7 - - -
24/05:00am 19.2 - - - - NNE 11 13 6 7 - - -
24/04:30am 19.1 - - - - W 13 17 7 9 - - -
24/04:00am 19.6 - - - - W 17 22 9 12 - - -
24/03:30am 19.5 - - - - NNE 17 20 9 11 - - -
24/03:00am 19.5 - - - - ENE 15 19 8 10 - - -
24/02:30am 19.5 - - - - E 13 17 7 9 - - -
24/02:00am 19.4 - - - - S 13 15 7 8 - - -
24/01:30am 19.5 - - - - S 11 13 6 7 - - -
24/01:00am 19.3 - - - - SE 9 11 5 6 - - -
24/12:30am 18.9 - - - - E 7 9 4 5 - - -
24/12:00am 19.1 - - - - E 6 7 3 4 - - -
 
Date/Time
EDT
Temp
°C
App
Temp
°C
Dew
Point
Rel
Hum
%
Delta-T
°C
Wind Press
QNH
hPa
Press
MSL
hPa
Rain
since 9 am
mm
Dir
 
Spd
km/h
Gust
km/h
Spd
kts
Gust
kts
23/11:30pm 19.5 - - - - CALM 0 0 0 0 - - -
23/11:00pm 19.7 - - - - CALM 0 0 0 0 - - -
23/10:30pm 19.7 - - - - E 4 7 2 4 - - -
23/10:00pm 19.7 - - - - E 13 17 7 9 - - -
23/09:30pm 19.8 - - - - E 9 13 5 7 - - -
23/09:00pm 19.3 - - - - E 6 7 3 4 - - -
23/08:30pm 19.6 - - - - CALM 0 0 0 0 - - -
23/08:00pm 19.7 - - - - E 4 7 2 4 - - -
23/07:30pm 19.6 - - - - E 7 7 4 4 - - -
23/07:00pm 19.9 - - - - ENE 2 9 1 5 - - -
23/06:30pm 20.2 - - - - E 9 9 5 5 - - -
23/06:00pm 20.8 - - - - E 11 13 6 7 - - -
23/05:30pm 20.2 - - - - ENE 7 9 4 5 - - -
23/05:00pm 21.4 - - - - NE 4 11 2 6 - - -
23/04:30pm 20.1 - - - - ENE 7 9 4 5 - - -
23/04:00pm 20.3 - - - - ENE 13 15 7 8 - - -
23/03:30pm 20.0 - - - - ENE 11 13 6 7 - - -
23/03:00pm 20.5 - - - - ENE 13 15 7 8 - - -
23/02:30pm 20.2 - - - - ENE 13 15 7 8 - - -
23/02:00pm 20.0 - - - - ENE 13 19 7 10 - - -
23/01:30pm 21.0 - - - - ENE 11 13 6 7 - - -
23/01:00pm 20.1 - - - - NE 11 13 6 7 - - -
23/12:30pm 20.0 - - - - NE 11 13 6 7 - - -
23/12:00pm 19.6 - - - - ENE 13 17 7 9 - - -
23/11:30am 19.5 - - - - E 11 13 6 7 - - -
23/11:00am 19.9 - - - - ESE 9 11 5 6 - - -
23/10:30am 21.3 - - - - CALM 0 0 0 0 - - -
23/10:00am 20.9 - - - - ESE 6 7 3 4 - - -
23/09:30am 18.8 - - - - ESE 9 11 5 6 - - -
23/09:00am 18.1 - - - - ESE 4 6 2 3 - - -
23/08:30am 17.9 - - - - NNE 7 9 4 5 - - -
23/08:00am 17.9 - - - - CALM 0 0 0 0 - - -
23/07:30am 16.5 - - - - N 6 9 3 5 - - -
23/07:00am 16.1 - - - - N 4 7 2 4 - - -
23/06:30am 16.0 - - - - N 9 11 5 6 - - -
23/06:00am 15.7 - - - - N 9 11 5 6 - - -
23/05:30am 16.0 - - - - N 9 11 5 6 - - -
23/05:00am 15.9 - - - - CALM 0 7 0 4 - - -
23/04:30am 16.0 - - - - NW 7 9 4 5 - - -
23/04:00am 16.4 - - - - CALM 0 0 0 0 - - -
23/03:30am 16.6 - - - - N 11 13 6 7 - - -
23/03:00am 16.7 - - - - N 11 13 6 7 - - -
23/02:30am 17.0 - - - - N 9 13 5 7 - - -
23/02:00am 17.1 - - - - N 9 11 5 6 - - -
23/01:30am 17.4 - - - - N 13 17 7 9 - - -
23/01:00am 17.9 - - - - N 20 26 11 14 - - -
23/12:30am 18.0 - - - - N 24 30 13 16 - - -
23/12:00am 18.2 - - - - N 26 32 14 17 - - -
 
Date/Time
EDT
Temp
°C
App
Temp
°C
Dew
Point
Rel
Hum
%
Delta-T
°C
Wind Press
QNH
hPa
Press
MSL
hPa
Rain
since 9 am
mm
Dir
 
Spd
km/h
Gust
km/h
Spd
kts
Gust
kts
22/11:30pm 18.4 - - - - N 26 39 14 21 - - -
22/11:00pm 18.6 - - - - N 35 41 19 22 - - -
22/10:30pm 18.7 - - - - N 35 43 19 23 - - -
22/10:00pm 18.7 - - - - NNE 33 41 18 22 - - -
22/09:30pm 18.8 - - - - NNE 33 43 18 23 - - -
22/09:00pm 18.8 - - - - NNE 33 39 18 21 - - -
22/08:30pm 18.8 - - - - NNE 30 35 16 19 - - -
22/08:00pm 18.9 - - - - NNE 33 39 18 21 - - -

Other Formats:

Comma delimited format used in spreadsheet applications
http://www.bom.gov.au/fwo/IDN60801/IDN60801.95766.axf

JavaScript Object Notation format (JSON) in row-major order
http://www.bom.gov.au/fwo/IDN60801/IDN60801.95766.json